TimeCDT,TemperatureF,Dew PointF,Humidity,Sea Level PressureIn,VisibilityMPH,Wind Direction,Wind SpeedMPH,Gust SpeedMPH,PrecipitationIn,Events,Conditions,WindDirDegrees,DateUTC
12:15 AM,63.9,61.7,93,29.80,5.0,West,10.4,16.1,N/A,Rain-Thunderstorm,Thunderstorms and Rain,280,2013-05-21 05:15:00
12:35 AM,63.7,61.9,94,29.79,7.0,WNW,6.9,-,N/A,Rain-Thunderstorm,Thunderstorms and Rain,300,2013-05-21 05:35:00
12:55 AM,64.4,62.6,94,29.78,7.0,West,9.2,-,N/A,Rain-Thunderstorm,Heavy Thunderstorms and Rain,280,2013-05-21 05:55:00
1:15 AM,64.0,62.1,93,29.79,7.0,West,8.1,-,N/A,Rain-Thunderstorm,Heavy Thunderstorms and Rain,260,2013-05-21 06:15:00
1:35 AM,63.5,62.4,96,29.80,7.0,SW,6.9,-,N/A,Rain-Thunderstorm,Thunderstorms and Rain,220,2013-05-21 06:35:00
1:55 AM,63.7,62.6,96,29.78,10.0,SSW,10.4,16.1,N/A,Rain,Light Rain,200,2013-05-21 06:55:00
2:15 AM,63.9,62.6,96,29.74,10.0,South,9.2,16.1,N/A,Rain,Light Rain,190,2013-05-21 07:15:00
2:35 AM,63.9,61.5,92,29.70,10.0,SSE,8.1,-,N/A,Rain,Light Rain,160,2013-05-21 07:35:00
2:55 AM,63.5,60.8,91,29.72,10.0,South,10.4,-,N/A,,Mostly Cloudy,190,2013-05-21 07:55:00
3:15 AM,63.5,60.4,90,29.73,10.0,South,12.7,17.3,N/A,,Scattered Clouds,180,2013-05-21 08:15:00
3:35 AM,63.3,60.4,90,29.74,10.0,South,10.4,-,N/A,,Clear,180,2013-05-21 08:35:00
3:55 AM,63.0,60.4,91,29.74,10.0,South,10.4,-,N/A,,Clear,180,2013-05-21 08:55:00
4:15 AM,62.4,60.1,92,29.74,10.0,South,8.1,-,N/A,,Clear,170,2013-05-21 09:15:00
4:35 AM,62.4,60.1,92,29.74,10.0,South,6.9,-,N/A,,Clear,170,2013-05-21 09:35:00
4:55 AM,62.1,60.1,93,29.75,10.0,South,4.6,-,N/A,,Clear,190,2013-05-21 09:55:00
5:15 AM,62.4,59.9,91,29.75,10.0,South,9.2,-,N/A,,Clear,190,2013-05-21 10:15:00
5:35 AM,63.5,59.5,87,29.75,10.0,SSW,13.8,18.4,N/A,,Clear,200,2013-05-21 10:35:00
5:55 AM,63.9,59.9,87,29.75,10.0,SSW,12.7,19.6,N/A,,Clear,200,2013-05-21 10:55:00
6:15 AM,63.9,60.1,87,29.75,10.0,SSW,11.5,-,N/A,,Clear,210,2013-05-21 11:15:00
6:35 AM,64.0,60.8,89,29.74,10.0,SSW,9.2,-,N/A,,Clear,210,2013-05-21 11:35:00
6:55 AM,64.6,60.8,88,29.74,10.0,South,8.1,-,N/A,,Clear,190,2013-05-21 11:55:00
7:15 AM,66.9,61.3,82,29.74,10.0,South,10.4,16.1,N/A,,Clear,190,2013-05-21 12:15:00
7:35 AM,68.4,62.2,81,29.75,10.0,South,12.7,17.3,N/A,,Clear,180,2013-05-21 12:35:00
7:55 AM,68.0,61.9,81,29.75,10.0,South,15.0,21.9,N/A,,Clear,190,2013-05-21 12:55:00
8:15 AM,68.0,61.7,80,29.76,10.0,South,12.7,-,N/A,,Clear,190,2013-05-21 13:15:00
8:35 AM,68.7,62.6,81,29.78,10.0,South,19.6,26.5,N/A,,Scattered Clouds,180,2013-05-21 13:35:00
8:55 AM,68.9,63.1,82,29.78,10.0,South,17.3,23.0,N/A,,Mostly Cloudy,190,2013-05-21 13:55:00
9:15 AM,68.7,63.1,82,29.78,10.0,South,17.3,21.9,N/A,,Overcast,190,2013-05-21 14:15:00
9:35 AM,69.6,63.7,81,29.77,10.0,South,17.3,21.9,N/A,,Overcast,190,2013-05-21 14:35:00
9:55 AM,71.1,63.5,77,29.76,10.0,SSW,21.9,27.6,N/A,,Overcast,210,2013-05-21 14:55:00
10:15 AM,71.6,64.0,77,29.76,10.0,SSW,18.4,26.5,N/A,,Overcast,200,2013-05-21 15:15:00
10:35 AM,71.1,64.4,79,29.76,10.0,South,19.6,27.6,N/A,,Overcast,180,2013-05-21 15:35:00
10:55 AM,72.0,64.6,77,29.76,10.0,South,16.1,26.5,N/A,,Overcast,190,2013-05-21 15:55:00
11:15 AM,71.8,64.2,77,29.77,10.0,SSW,18.4,25.3,N/A,,Overcast,210,2013-05-21 16:15:00
11:35 AM,72.1,64.8,78,29.76,10.0,SSW,21.9,29.9,N/A,,Overcast,210,2013-05-21 16:35:00
11:55 AM,73.2,64.6,74,29.76,10.0,SSW,19.6,28.8,N/A,,Overcast,200,2013-05-21 16:55:00
12:15 PM,73.4,65.1,75,29.76,10.0,SSW,19.6,26.5,N/A,,Overcast,210,2013-05-21 17:15:00
12:35 PM,74.8,66.2,74,29.76,10.0,SW,17.3,24.2,N/A,,Overcast,220,2013-05-21 17:35:00
12:55 PM,76.3,67.5,74,29.76,10.0,SSW,18.4,25.3,N/A,,Overcast,210,2013-05-21 17:55:00
1:15 PM,76.6,67.3,73,29.76,10.0,SSW,19.6,24.2,N/A,,Mostly Cloudy,210,2013-05-21 18:15:00
1:35 PM,77.0,66.4,70,29.76,10.0,SW,19.6,25.3,N/A,,Mostly Cloudy,220,2013-05-21 18:35:00
1:55 PM,77.5,67.1,70,29.76,10.0,SSW,15.0,26.5,N/A,,Mostly Cloudy,210,2013-05-21 18:55:00
2:15 PM,77.5,66.4,68,29.75,10.0,SSW,18.4,23.0,N/A,,Scattered Clouds,210,2013-05-21 19:15:00
2:35 PM,79.0,66.4,65,29.74,10.0,SSW,17.3,25.3,N/A,,Scattered Clouds,210,2013-05-21 19:35:00
2:55 PM,79.9,66.6,64,29.74,10.0,SW,17.3,24.2,N/A,,Scattered Clouds,220,2013-05-21 19:55:00
3:15 PM,79.7,66.4,64,29.74,10.0,SSW,18.4,24.2,N/A,,Scattered Clouds,210,2013-05-21 20:15:00
3:35 PM,80.4,65.3,60,29.74,10.0,SSW,21.9,28.8,N/A,,Mostly Cloudy,210,2013-05-21 20:35:00
3:55 PM,80.4,65.5,60,29.73,10.0,SSW,20.7,28.8,N/A,,Scattered Clouds,210,2013-05-21 20:55:00
4:15 PM,80.1,65.5,61,29.73,10.0,SSW,16.1,26.5,N/A,,Scattered Clouds,210,2013-05-21 21:15:00
4:35 PM,80.4,65.5,60,29.73,10.0,SW,19.6,24.2,N/A,,Scattered Clouds,220,2013-05-21 21:35:00
4:55 PM,80.1,66.0,62,29.72,10.0,SSW,15.0,20.7,N/A,,Scattered Clouds,200,2013-05-21 21:55:00
5:15 PM,79.9,65.8,62,29.72,10.0,SW,15.0,23.0,N/A,,Scattered Clouds,220,2013-05-21 22:15:00
5:35 PM,79.7,66.0,63,29.71,10.0,SSW,16.1,23.0,N/A,,Scattered Clouds,200,2013-05-21 22:35:00
5:55 PM,78.8,65.8,64,29.70,10.0,SW,17.3,-,N/A,,Scattered Clouds,220,2013-05-21 22:55:00
6:15 PM,77.7,65.7,66,29.70,10.0,SSW,11.5,-,N/A,,Clear,210,2013-05-21 23:15:00
6:35 PM,77.9,65.8,66,29.69,10.0,SSW,11.5,-,N/A,,Clear,200,2013-05-21 23:35:00
6:55 PM,76.6,65.8,69,29.70,10.0,SSW,9.2,-,N/A,,Scattered Clouds,210,2013-05-21 23:55:00
7:15 PM,76.1,65.5,70,29.69,10.0,SW,9.2,-,N/A,,Clear,220,2013-05-22 00:15:00
7:35 PM,75.0,64.9,71,29.69,10.0,SSW,9.2,-,N/A,,Clear,200,2013-05-22 00:35:00
7:55 PM,74.3,63.5,69,29.70,10.0,SSW,10.4,-,N/A,,Clear,210,2013-05-22 00:55:00
8:15 PM,72.7,64.2,75,29.71,10.0,SSW,8.1,-,N/A,,Mostly Cloudy,210,2013-05-22 01:15:00
8:35 PM,72.7,65.3,78,29.72,10.0,SSW,8.1,-,N/A,,Overcast,210,2013-05-22 01:35:00
8:55 PM,72.5,65.5,79,29.73,10.0,SSW,10.4,-,N/A,,Mostly Cloudy,200,2013-05-22 01:55:00
9:15 PM,72.9,64.9,76,29.73,10.0,SSW,11.5,-,N/A,,Scattered Clouds,210,2013-05-22 02:15:00
9:35 PM,72.5,64.6,76,29.73,10.0,SSW,8.1,17.3,N/A,,Clear,200,2013-05-22 02:35:00
9:55 PM,71.4,64.6,79,29.73,10.0,South,8.1,-,N/A,,Scattered Clouds,180,2013-05-22 02:55:00
10:15 PM,70.5,64.8,82,29.72,10.0,South,6.9,-,N/A,,Scattered Clouds,180,2013-05-22 03:15:00
10:35 PM,70.9,64.6,80,29.72,10.0,South,8.1,-,N/A,,Mostly Cloudy,190,2013-05-22 03:35:00
10:55 PM,70.7,64.8,81,29.72,10.0,South,11.5,16.1,N/A,,Mostly Cloudy,180,2013-05-22 03:55:00
11:15 PM,70.2,64.8,83,29.71,10.0,South,6.9,-,N/A,,Mostly Cloudy,170,2013-05-22 04:15:00
11:35 PM,70.0,64.6,83,29.71,10.0,South,10.4,-,N/A,,Mostly Cloudy,180,2013-05-22 04:35:00
11:55 PM,70.0,64.4,82,29.71,10.0,South,11.5,-,N/A,,Overcast,190,2013-05-22 04:55:00